Location: Colle San Luigi
(43.5500°N, 13.4167°E)
Time: 15:48:16
(UTC+00:00)

Cosmos 1833 Rocket - Pass Details

Date: 09 April 2020
Orbit: 834 x 838 km, 71.0° (Epoch: 27 May)

Event Time Altitude Azimuth Distance (km) Brightness Sun altitude
Exits shadow 20:39:28 44° 42° (NE) 1,144 3.3 -28.5°
Drops below altitude 10° 20:43:19 10° 29° (NNE) 2,459 5.3 -29.0°
Sets 20:45:46 0° 27° (NNE) 3,396 6.1 -29.2°
